timestamp,surface_pressure_avg,surface_temp_avg,battery_voltage,lat,long
2023-01-20 00:09:00+00:00,319.1813,3.13,12.49,47.84626,-54.09684
2023-01-20 00:19:00+00:00,312.4863,3.16,12.41,47.84626,-54.09684
2023-01-20 00:29:00+00:00,296.3964,3.18,12.41,47.84626,-54.09684
2023-01-20 00:39:00+00:00,287.693,3.17,12.41,47.84626,-54.09684
2023-01-20 00:49:00+00:00,284.9847,3.18,12.41,47.84626,-54.09684
2023-01-20 00:59:00+00:00,274.7697,3.18,12.41,47.84626,-54.09684
2023-01-20 01:09:00+00:00,263.7331,3.19,12.41,47.84626,-54.09684
2023-01-20 01:19:00+00:00,259.5731,3.2,12.41,47.84626,-54.09684
2023-01-20 01:29:00+00:00,257.3647,3.2,12.41,47.84626,-54.09684
2023-01-20 01:39:00+00:00,250.1748,3.2,12.41,47.84626,-54.09684
2023-01-20 01:49:00+00:00,242.4364,3.2,12.41,47.84626,-54.09684
2023-01-20 01:59:00+00:00,237.4064,3.2,12.41,47.84626,-54.09684
2023-01-20 02:09:00+00:00,235.2981,3.2,12.41,47.84626,-54.09684
2023-01-20 02:19:00+00:00,228.9131,3.2,12.41,47.84626,-54.09684
2023-01-20 02:29:00+00:00,219.0964,3.2,12.41,47.84626,-54.09684
2023-01-20 02:39:00+00:00,217.5914,3.2,12.41,47.84626,-54.09684
2023-01-20 02:49:00+00:00,222.8931,3.2,12.41,47.84626,-54.09684
2023-01-20 02:59:00+00:00,219.7281,3.2,12.41,47.84626,-54.09684
2023-01-20 03:09:00+00:00,213.6898,3.2,12.41,47.84626,-54.09684
2023-01-20 03:19:00+00:00,217.3281,3.2,12.41,47.84626,-54.09684
2023-01-20 03:29:00+00:00,222.8031,3.2,12.41,47.84626,-54.09684
2023-01-20 03:39:00+00:00,217.7931,3.18,12.41,47.84626,-54.09684
2023-01-20 03:49:00+00:00,212.4414,3.17,12.41,47.84626,-54.09684
2023-01-20 03:59:00+00:00,217.0081,3.2,12.41,47.84626,-54.09684
2023-01-20 04:09:00+00:00,220.9297,3.2,12.41,47.84626,-54.09684
2023-01-20 04:19:01+00:00,221.1131,3.18,12.41,47.84626,-54.09684
2023-01-20 04:29:01+00:00,222.1414,3.19,12.41,47.84626,-54.09684
2023-01-20 04:39:01+00:00,226.4714,3.18,12.41,47.84626,-54.09684
2023-01-20 04:49:01+00:00,227.3464,3.19,12.41,47.84626,-54.09684
2023-01-20 04:59:01+00:00,229.2031,3.19,12.41,47.84626,-54.09684
2023-01-20 05:09:01+00:00,232.2148,3.19,12.41,47.84626,-54.09684
2023-01-20 05:19:01+00:00,235.1497,3.19,12.41,47.84626,-54.09684
2023-01-20 05:29:01+00:00,241.6331,3.18,12.41,47.84626,-54.09684
2023-01-20 05:39:01+00:00,247.4264,3.18,12.41,47.84626,-54.09684
2023-01-20 05:49:01+00:00,253.6164,3.1,12.41,47.84626,-54.09684
2023-01-20 05:59:01+00:00,253.4764,3.1,12.41,47.84626,-54.09684
2023-01-20 06:09:01+00:00,259.1064,3.1,12.41,47.84626,-54.09684
2023-01-20 06:19:00+00:00,266.733,3.1,12.41,47.84626,-54.09684
2023-01-20 06:29:00+00:00,271.1847,3.1,12.41,47.84626,-54.09684
2023-01-20 06:39:00+00:00,271.2247,3.1,12.41,47.84626,-54.09684
2023-01-20 06:49:00+00:00,283.4481,3.09,12.41,47.84626,-54.09684
2023-01-20 06:59:00+00:00,289.0797,3.09,12.41,47.84626,-54.09684
2023-01-20 07:09:00+00:00,290.2881,3.09,12.41,47.84626,-54.09684
2023-01-20 07:19:01+00:00,296.1047,3.07,12.41,47.84626,-54.09684
2023-01-20 07:29:01+00:00,315.9114,3.0,12.41,47.84626,-54.09684
2023-01-20 07:39:01+00:00,320.2997,3.02,12.41,47.84626,-54.09684
2023-01-20 07:49:01+00:00,319.8962,3.05,12.41,47.84626,-54.09684
2023-01-20 07:59:01+00:00,331.3931,3.0,12.41,47.84626,-54.09684
2023-01-20 08:09:01+00:00,344.2712,3.01,12.41,47.84626,-54.09684
2023-01-20 08:19:00+00:00,344.7513,3.03,12.41,47.84626,-54.09684
2023-01-20 08:29:00+00:00,345.0979,3.0,12.41,47.84626,-54.09684
2023-01-20 08:39:00+00:00,357.6863,3.0,12.41,47.84626,-54.09684
2023-01-20 08:49:00+00:00,365.0629,3.0,12.41,47.84626,-54.09684
2023-01-20 08:59:00+00:00,364.8962,3.0,12.41,47.84626,-54.09684
2023-01-20 09:09:00+00:00,367.728,3.0,12.41,47.84626,-54.09684
2023-01-20 09:19:01+00:00,374.3696,3.0,12.41,47.84626,-54.09684
2023-01-20 09:29:01+00:00,380.6046,3.0,12.41,47.84626,-54.09684
2023-01-20 09:39:01+00:00,385.4696,3.0,12.41,47.84626,-54.09684
2023-01-20 09:49:01+00:00,386.6446,3.0,12.41,47.84626,-54.09684
2023-01-20 09:59:01+00:00,389.1996,3.0,12.41,47.84626,-54.09684
2023-01-20 10:09:01+00:00,388.7562,3.0,12.41,47.84626,-54.09684
2023-01-20 10:19:01+00:00,392.473,3.0,12.41,47.84626,-54.09684
2023-01-20 10:29:01+00:00,393.8546,3.0,12.41,47.84626,-54.09684
2023-01-20 10:39:01+00:00,390.3697,3.0,12.41,47.84626,-54.09684
2023-01-20 10:49:01+00:00,387.6046,2.99,12.41,47.84626,-54.09684
2023-01-20 10:59:01+00:00,386.3347,2.96,12.41,47.84626,-54.09684
2023-01-20 11:09:01+00:00,382.278,2.97,12.41,47.84626,-54.09684
2023-01-20 11:19:00+00:00,382.9729,2.99,12.41,47.84626,-54.09684
2023-01-20 11:29:00+00:00,382.9047,2.99,12.41,47.84626,-54.09684
2023-01-20 11:39:00+00:00,378.7245,2.99,12.41,47.84626,-54.09684
2023-01-20 11:49:00+00:00,370.3646,3.0,12.41,47.84626,-54.09684
2023-01-20 11:59:00+00:00,366.7629,3.0,12.41,47.84626,-54.09684
2023-01-20 12:09:00+00:00,361.7079,3.0,12.41,47.84626,-54.09684
2023-01-20 12:19:00+00:00,346.4713,3.0,12.41,47.84626,-54.09684
2023-01-20 12:29:00+00:00,336.2812,3.0,12.41,47.84626,-54.09684
2023-01-20 12:39:00+00:00,335.4697,3.0,12.41,47.84626,-54.09684
2023-01-20 12:49:00+00:00,329.8180000000001,3.0,12.41,47.84626,-54.09684
2023-01-20 12:59:00+00:00,315.893,3.0,12.41,47.84626,-54.09684
2023-01-20 13:09:00+00:00,305.0179,3.0,12.41,47.84626,-54.09684
2023-01-20 13:19:00+00:00,305.6913,3.0,12.41,47.84626,-54.09684
2023-01-20 13:29:00+00:00,301.4697,3.0,12.41,47.84626,-54.09684
2023-01-20 13:39:00+00:00,293.3064,3.0,12.41,47.84626,-54.09684
2023-01-20 13:49:00+00:00,284.9714,3.0,12.41,47.84626,-54.09684
2023-01-20 13:59:00+00:00,278.3447,3.0,12.41,47.84626,-54.09684
2023-01-20 14:09:00+00:00,263.9547,3.0,12.41,47.84626,-54.09684
2023-01-20 14:19:00+00:00,251.6914,3.0,12.49,47.84626,-54.09684
2023-01-20 14:29:00+00:00,249.3081,3.0,12.49,47.84626,-54.09684
2023-01-20 14:39:00+00:00,247.1648,3.0,12.49,47.84626,-54.09684
2023-01-20 14:49:00+00:00,243.5598,3.0,12.49,47.84626,-54.09684
2023-01-20 14:59:00+00:00,237.3314,2.9,12.49,47.84626,-54.09684
2023-01-20 15:09:00+00:00,233.4231,2.9,12.49,47.84626,-54.09684
2023-01-20 15:19:00+00:00,226.2364,2.9,12.57,47.84626,-54.09684
2023-01-20 15:29:00+00:00,221.3531,2.9,12.57,47.84626,-54.09684
2023-01-20 15:39:00+00:00,216.4014,2.9,12.57,47.84626,-54.09684
2023-01-20 15:49:00+00:00,210.6531,2.9,12.57,47.84626,-54.09684
2023-01-20 15:59:00+00:00,210.4797,2.82,12.57,47.84626,-54.09684
2023-01-20 16:09:00+00:00,213.5848,2.84,12.57,47.84626,-54.09684
2023-01-20 16:19:00+00:00,208.7531,2.79,12.65,47.84626,-54.09684
2023-01-20 16:29:00+00:00,204.8347,2.7,12.65,47.84626,-54.09684
2023-01-20 16:39:00+00:00,207.0665,2.72,12.65,47.84626,-54.09684
2023-01-20 16:49:00+00:00,210.7665,2.7,12.65,47.84626,-54.09684
2023-01-20 16:59:00+00:00,207.7948,2.7,12.65,47.84626,-54.09684
2023-01-20 17:09:00+00:00,204.5965,2.7,12.65,47.84626,-54.09684
2023-01-20 17:19:00+00:00,206.5531,2.9,12.57,47.84626,-54.09684
2023-01-20 17:29:00+00:00,208.0281,2.9,12.57,47.84626,-54.09684
2023-01-20 17:39:00+00:00,205.3331,2.9,12.57,47.84626,-54.09684
2023-01-20 17:49:00+00:00,206.6331,2.96,12.57,47.84626,-54.09684
2023-01-20 17:59:00+00:00,205.7881,2.99,12.57,47.84626,-54.09684
2023-01-20 18:09:00+00:00,197.9715,2.9,12.57,47.84626,-54.09684
2023-01-20 18:19:00+00:00,196.0398,2.8,12.57,47.84626,-54.09684
2023-01-20 18:29:00+00:00,207.4464,2.89,12.57,47.84626,-54.09684
2023-01-20 18:39:00+00:00,214.9481,2.9,12.57,47.84626,-54.09684
2023-01-20 18:49:00+00:00,228.5281,2.9,12.57,47.84626,-54.09684
2023-01-20 18:59:00+00:00,244.5647,2.9,12.57,47.84626,-54.09684
2023-01-20 19:09:00+00:00,246.9431,2.96,12.57,47.84626,-54.09684
2023-01-20 19:19:00+00:00,238.3581,2.9,12.49,47.84626,-54.09684
2023-01-20 19:29:00+00:00,242.3131,2.93,12.49,47.84626,-54.09684
2023-01-20 19:39:00+00:00,255.1264,2.94,12.49,47.84626,-54.09684
2023-01-20 19:49:00+00:00,260.1864,2.97,12.49,47.84626,-54.09684
2023-01-20 19:59:00+00:00,258.2164,2.97,12.49,47.84626,-54.09684
2023-01-20 20:09:00+00:00,260.5515,2.96,12.49,47.84626,-54.09684
2023-01-20 20:19:00+00:00,265.8647,2.98,12.41,47.84626,-54.09684
2023-01-20 20:29:00+00:00,278.368,2.97,12.41,47.84626,-54.09684
2023-01-20 20:39:00+00:00,301.4647,2.97,12.41,47.84626,-54.09684
2023-01-20 20:49:00+00:00,315.5163,2.99,12.41,47.84626,-54.09684
2023-01-20 20:59:00+00:00,313.2029,2.99,12.41,47.84626,-54.09684
2023-01-20 21:09:00+00:00,313.4647,2.99,12.41,47.84626,-54.09684
2023-01-20 21:19:00+00:00,331.1414,2.97,12.41,47.84626,-54.09684
2023-01-20 21:29:00+00:00,335.2013,2.98,12.41,47.84626,-54.09684
2023-01-20 21:39:00+00:00,318.3497,2.97,12.41,47.84626,-54.09684
2023-01-20 21:49:00+00:00,324.3696,2.97,12.41,47.84626,-54.09684
2023-01-20 21:59:00+00:00,336.6779,2.98,12.41,47.84626,-54.09684
2023-01-20 22:09:00+00:00,323.6813,2.98,12.41,47.84626,-54.09684
2023-01-20 22:19:00+00:00,320.4963,2.96,12.41,47.84626,-54.09684
2023-01-20 22:29:00+00:00,344.3763,2.97,12.41,47.84626,-54.09684
2023-01-20 22:39:00+00:00,355.0596,2.97,12.41,47.84626,-54.09684
2023-01-20 22:49:00+00:00,339.7897,2.93,12.41,47.84626,-54.09684
2023-01-20 22:59:00+00:00,341.48800000000006,2.9,12.41,47.84626,-54.09684
2023-01-20 23:09:00+00:00,359.1213,2.93,12.41,47.84626,-54.09684
2023-01-20 23:19:00+00:00,350.418,2.9,12.41,47.84626,-54.09684
2023-01-20 23:29:00+00:00,323.598,2.9,12.41,47.84626,-54.09684
2023-01-20 23:39:00+00:00,326.5013,2.9,12.41,47.84626,-54.09684
2023-01-20 23:49:00+00:00,338.3646,2.9,12.41,47.84626,-54.09684
2023-01-20 23:59:00+00:00,332.1146,2.8,12.41,47.84626,-54.09684
